Location: San Gennaro Vesuviano
(40.8833°N, 14.5333°E)
Time: 22:40:42
(UTC+00:00)

Cosmos 676 Rocket - Pass Details

Date: 22 April 2021
Orbit: 755 x 783 km, 74.0° (Epoch: 10 May)

Event Time Altitude Azimuth Distance (km) Brightness Sun altitude
Exits shadow 19:37:14 26° 171° (S) 1,470 5.1 -19.0°
Maximum altitude 19:40:00 54° 104° (ESE) 915 4.0 -19.4°
Drops below altitude 10° 19:45:02 10° 28° (NNE) 2,289 6.6 -20.2°
Sets 19:47:27 0° 24° (NNE) 3,217 7.4 -20.5°
